DW1274 Weather Reports


Display with metric or nautical units.
time (UTC)temp
F
wind
direction
speed
MPH
gust
MPH
rain 1hr
in
rain 24hr
in
rain mn
in
humidity
%
barometer
mb
20260903210000 85 61 4.0 10.0 0.00 0.25 0.07 79 1012.1
20260903205501 85 87 4.0 10.0 0.00 0.25 0.07 77 1012.1
20260903204501 86 94 4.0 10.0 0.00 0.25 0.07 76 1012.3
20260903204001 85 48 4.0 9.0 0.00 0.25 0.07 76 1012.4
20260903203001 85 92 4.0 10.0 0.00 0.25 0.07 77 1012.6
20260903202502 85 60 4.0 9.0 0.00 0.25 0.07 77 1012.6
20260903202003 85 155 4.0 9.0 0.00 0.25 0.07 76 1012.6
20260903201504 85 83 4.0 9.0 0.00 0.25 0.07 76 1012.7
20260903201002 85 143 5.0 9.0 0.00 0.25 0.07 77 1012.8
20260903200502 85 138 5.0 9.0 0.00 0.25 0.07 78 1012.9
20260903200001 85 122 3.0 9.0 0.00 0.25 0.07 79 1013.0
20260903195502 85 15 3.0 7.0 0.00 0.25 0.07 79 1013.1
20260903195002 84 133 3.0 9.0 0.00 0.25 0.07 80 1013.1
20260903194502 84 123 3.0 11.0 0.00 0.25 0.07 79 1013.2
20260903194002 84 30 3.0 11.0 0.00 0.25 0.07 80 1013.2
20260903193502 84 345 4.0 9.0 0.00 0.25 0.07 80 1013.2
20260903193006 84 19 4.0 9.0 0.00 0.25 0.07 81 1013.2
20260903192001 84 43 3.0 8.0 0.00 0.25 0.07 84 1013.2
20260903191501 83 33 2.0 8.0 0.00 0.25 0.07 83 1013.4
20260903191001 83 60 3.0 7.0 0.00 0.25 0.07 84 1013.4
20260903190502 83 38 3.0 7.0 0.00 0.25 0.07 85 1013.4
20260903190001 82 141 3.0 6.0 0.00 0.25 0.07 85 1013.4
20260903185502 82 76 4.0 8.0 0.00 0.25 0.07 86 1013.4
20260903185001 81 76 4.0 9.0 0.00 0.25 0.07 86 1013.5
20260903184502 81 133 3.0 9.0 0.00 0.25 0.07 86 1013.5
20260903184001 81 123 2.0 6.0 0.00 0.25 0.07 87 1013.6
20260903183502 81 49 3.0 6.0 0.00 0.25 0.07 87 1013.6
20260903183000 80 49 3.0 6.0 0.00 0.25 0.07 88 1013.7
20260903181501 80 0 3.0 7.0 0.00 0.25 0.07 88 1014.2
20260903181000 80 78 3.0 7.0 0.05 0.25 0.07 88 1014.2
20260903180501 80 56 3.0 7.0 0.06 0.25 0.07 88 1014.3
20260903180000 80 31 3.0 7.0 0.06 0.25 0.07 88 1014.3
20260903175501 79 53 3.0 7.0 0.06 0.25 0.07 89 1014.3
20260903175002 79 22 3.0 7.0 0.06 0.25 0.07 89 1014.3
20260903174002 79 43 2.0 5.0 0.07 0.25 0.07 90 1014.3
20260903173501 79 91 3.0 5.0 0.07 0.25 0.07 90 1014.4
20260903173000 79 49 2.0 5.0 0.07 0.25 0.07 90 1014.5
20260903172003 80 141 4.0 7.0 0.07 0.25 0.07 89 1014.8
20260903171001 81 112 1.0 4.0 0.02 0.20 0.03 87 1014.8
20260903170502 82 0 1.0 4.0 0.00 0.19 0.01 87 1014.7
20260903170002 82 97 1.0 5.0 0.00 0.19 0.01 86 1014.7
20260903165503 82 156 2.0 7.0 0.00 0.19 0.01 85 1014.8
20260903164502 82 102 4.0 7.0 0.01 0.19 0.01 83 1014.9
20260903164002 82 115 4.0 8.0 0.00 0.18 0.01 82 1015.0
20260903163502 83 126 5.0 8.0 0.00 0.18 0.01 82 1015.0
20260903163000 83 110 4.0 7.0 0.00 0.18 0.01 82 1015.0
20260903162002 84 66 4.0 10.0 0.00 0.18 0.01 79 1015.0
20260903161504 84 65 5.0 13.0 0.00 0.18 0.01 78 1014.9
20260903161001 85 113 6.0 13.0 0.00 0.18 0.01 77 1014.9
20260903160501 85 97 5.0 12.0 0.00 0.18 0.01 77 1014.8
20260903155501 85 139 4.0 11.0 0.00 0.18 0.01 78 1014.8
20260903155001 85 105 5.0 12.0 0.00 0.18 0.00 77 1014.9
20260903154501 85 38 6.0 12.0 0.00 0.18 0.00 77 1014.8
20260903154001 85 118 6.0 11.0 0.00 0.18 0.00 76 1014.9
20260903153500 85 88 5.0 10.0 0.00 0.18 0.00 79 1014.8
20260903153001 86 36 4.0 11.0 0.00 0.18 0.00 77 1014.6
20260903152501 85 35 5.0 11.0 0.00 0.18 0.00 78 1014.5
20260903152002 85 26 4.0 9.0 0.00 0.18 0.00 78 1014.5
20260903151501 85 184 3.0 6.0 0.00 0.18 0.00 80 1014.7
20260903151001 85 133 3.0 7.0 0.00 0.18 0.00 81 1014.6
20260903150502 85 102 3.0 9.0 0.00 0.18 0.00 79 1014.6
20260903145002 85 38 4.0 11.0 0.00 0.17 0.00 79 1014.7
20260903144501 84 54 4.0 11.0 0.00 0.17 0.00 82 1014.7
20260903143502 84 49 3.0 8.0 0.00 0.17 0.00 81 1014.6
20260903143000 83 123 4.0 8.0 0.00 0.17 0.00 84 1014.6
20260903142501 83 5 4.0 9.0 0.00 0.17 0.00 84 1014.5
20260903142001 83 37 4.0 9.0 0.00 0.17 0.00 84 1014.6
20260903141000 83 8 3.0 9.0 0.00 0.17 0.00 84 1014.7
20260903140500 83 0 2.0 8.0 0.00 0.17 0.00 85 1014.7
20260903140000 83 0 3.0 8.0 0.00 0.17 0.00 86 1014.7
20260903135503 83 64 3.0 7.0 0.00 0.17 0.00 86 1014.8
20260903135001 83 34 3.0 9.0 0.00 0.17 0.00 85 1014.8
20260903134005 83 194 3.0 8.0 0.00 0.17 0.00 85 1014.7
20260903133500 83 8 4.0 8.0 0.00 0.17 0.00 87 1014.8
20260903133000 82 4 4.0 8.0 0.00 0.17 0.00 86 1014.8
20260903132502 82 204 4.0 9.0 0.00 0.17 0.00 87 1014.7
20260903132001 82 25 4.0 9.0 0.00 0.17 0.00 87 1014.7
20260903131501 81 19 3.0 7.0 0.00 0.17 0.00 89 1014.7
20260903131002 80 18 2.0 5.0 0.00 0.17 0.00 92 1014.7
20260903130502 79 0 1.0 4.0 0.00 0.17 0.00 93 1014.7
20260903130002 79 27 1.0 6.0 0.00 0.17 0.00 94 1014.7
20260903125502 78 6 3.0 6.0 0.00 0.17 0.00 94 1014.8
20260903125001 78 32 3.0 6.0 0.00 0.17 0.00 94 1014.8
20260903124501 78 21 2.0 6.0 0.00 0.17 0.00 95 1014.8
20260903123502 78 22 1.0 5.0 0.00 0.17 0.00 95 1014.8
20260903123001 78 200 2.0 5.0 0.00 0.17 0.00 95 1014.8
20260903122502 77 31 2.0 5.0 0.00 0.17 0.00 95 1014.8
20260903121502 77 14 2.0 4.0 0.00 0.17 0.00 95 1014.7
20260903121002 77 19 2.0 4.0 0.00 0.17 0.00 95 1014.7
20260903120502 77 38 2.0 4.0 0.00 0.17 0.00 95 1014.6
20260903120001 77 25 2.0 4.0 0.00 0.17 0.00 95 1014.5
20260903115502 77 12 2.0 4.0 0.00 0.17 0.00 95 1014.4
20260903115003 77 12 2.0 4.0 0.00 0.17 0.00 95 1014.4
20260903114502 77 24 2.0 4.0 0.00 0.17 0.00 95 1014.3
20260903114002 77 9 2.0 4.0 0.00 0.17 0.00 95 1014.2
20260903113505 77 353 2.0 4.0 0.00 0.17 0.00 95 1014.1
20260903113001 77 245 2.0 5.0 0.00 0.17 0.00 95 1014.1
20260903112502 77 2 2.0 5.0 0.00 0.17 0.00 95 1013.9
20260903112002 77 211 2.0 5.0 0.00 0.17 0.00 95 1013.8
20260903111502 77 333 2.0 4.0 0.00 0.17 0.00 95 1013.7
20260903111002 77 33 2.0 4.0 0.00 0.17 0.00 95 1013.6
20260903110502 77 12 2.0 3.0 0.00 0.17 0.00 95 1013.6
20260903110001 76 225 2.0 3.0 0.00 0.17 0.00 95 1013.6
20260903105502 76 341 1.0 3.0 0.00 0.17 0.00 95 1013.5
20260903105001 76 1 0.0 3.0 0.00 0.17 0.00 95 1013.5
20260903104006 76 109 1.0 2.0 0.00 0.17 0.00 95 1013.4
20260903103502 76 0 1.0 3.0 0.00 0.17 0.00 95 1013.4
20260903102003 77 346 2.0 3.0 0.00 0.17 0.00 95 1013.3
20260903100954 77 0 2.0 4.0 0.00 0.17 0.00 95 1013.3
20260903100450 77 18 2.0 4.0 0.00 0.17 0.00 95 1013.3
20260903095451 77 207 3.0 5.0 0.00 0.17 0.00 95 1013.2
20260903094952 77 28 3.0 5.0 0.00 0.17 0.00 95 1013.2
20260903094452 77 13 3.0 5.0 0.00 0.17 0.00 95 1013.1
20260903093951 77 38 3.0 4.0 0.00 0.17 0.00 95 1013.1
20260903092951 77 7 2.0 4.0 0.00 0.17 0.00 94 1013.1
20260903092450 77 17 2.0 4.0 0.00 0.17 0.00 94 1013.0
20260903091953 77 11 3.0 4.0 0.00 0.17 0.00 94 1013.0
20260903091447 77 17 2.0 4.0 0.00 0.17 0.00 94 1013.0
20260903090938 77 263 2.0 3.0 0.00 0.17 0.00 94 1013.0
20260903090438 77 358 2.0 4.0 0.00 0.17 0.00 94 1013.1
20260903085438 77 349 2.0 4.0 0.00 0.17 0.00 94 1013.2
20260903084437 77 333 1.0 4.0 0.00 0.17 0.00 94 1013.2
20260903083938 77 358 0.0 3.0 0.00 0.17 0.00 94 1013.2
20260903083438 77 0 1.0 3.0 0.00 0.17 0.00 94 1013.2
20260903082931 78 0 2.0 4.0 0.00 0.17 0.00 94 1013.2
20260903082431 78 355 2.0 4.0 0.00 0.17 0.00 94 1013.2
20260903081930 78 357 2.0 3.0 0.00 0.17 0.00 94 1013.1
20260903081430 78 353 2.0 3.0 0.00 0.17 0.00 94 1013.2
20260903080930 78 0 2.0 3.0 0.00 0.17 0.00 94 1013.2
20260903080430 78 2 2.0 3.0 0.00 0.17 0.00 94 1013.3
20260903075929 78 358 2.0 3.0 0.00 0.17 0.00 94 1013.4
20260903075430 78 253 2.0 3.0 0.00 0.17 0.00 94 1013.4
20260903074430 78 346 2.0 3.0 0.00 0.17 0.00 94 1013.4
20260903073929 78 333 1.0 2.0 0.00 0.17 0.00 94 1013.3
20260903073429 78 348 1.0 2.0 0.00 0.17 0.00 94 1013.4
20260903072930 78 5 0.0 2.0 0.00 0.17 0.00 94 1013.4
20260903072431 78 0 0.0 1.0 0.00 0.17 0.00 94 1013.4
20260903071930 78 0 0.0 2.0 0.00 0.17 0.00 94 1013.4
20260903071430 78 0 0.0 2.0 0.00 0.17 0.00 94 1013.5
20260903070929 78 0 0.0 1.0 0.00 0.17 0.00 94 1013.6
20260903070429 78 0 0.0 2.0 0.00 0.17 0.00 94 1013.7
20260903065929 78 0 0.0 2.0 0.00 0.17 0.00 93 1013.7
20260903065434 78 257 0.0 2.0 0.00 0.17 0.00 93 1013.7
20260903064930 78 0 0.0 2.0 0.00 0.17 0.00 93 1013.7
20260903064430 78 0 0.0 2.0 0.00 0.17 0.00 93 1013.6
20260903063933 78 339 0.0 2.0 0.00 0.17 0.00 93 1013.7
20260903063429 78 0 0.0 0.0 0.00 0.17 0.00 93 1013.8
20260903062929 78 0 0.0 0.0 0.00 0.17 0.00 93 1013.8
20260903061930 78 99 0.0 1.0 0.00 0.17 0.00 93 1014.0
20260903061429 79 0 0.0 2.0 0.00 0.17 0.00 93 1014.0
20260903060430 79 0 1.0 3.0 0.00 0.17 0.00 93 1014.1
20260903055925 79 21 1.0 3.0 0.00 0.17 0.00 93 1014.2
20260903055426 79 217 1.0 2.0 0.00 0.17 0.00 93 1014.2
20260903054925 79 14 1.0 3.0 0.00 0.17 0.00 93 1014.3
20260903053925 79 358 2.0 4.0 0.00 0.17 0.00 93 1014.4
20260903053425 79 0 2.0 4.0 0.00 0.17 0.00 93 1014.4
20260903052928 79 0 2.0 4.0 0.00 0.17 0.00 93 1014.5
20260903052425 79 60 2.0 4.0 0.00 0.17 0.00 93 1014.4
20260903051925 79 53 1.0 4.0 0.00 0.17 0.00 93 1014.4
20260903051425 79 191 2.0 5.0 0.00 0.17 0.00 93 1014.4
20260903050912 79 24 3.0 5.0 0.00 0.17 0.00 93 1014.4
20260903045903 78 354 3.0 5.0 0.00 0.17 0.00 93 1014.3
20260903045402 78 298 2.0 5.0 0.00 0.17 0.00 93 1014.3
20260903044902 78 20 2.0 4.0 0.00 0.17 0.00 93 1014.4
20260903044402 78 5 2.0 4.0 0.00 0.17 0.00 93 1014.4
20260903043901 78 12 2.0 4.0 0.00 0.17 0.00 93 1014.5
20260903043401 78 25 2.0 4.0 0.00 0.17 0.00 93 1014.5
20260903042902 78 356 2.0 4.0 0.00 0.17 0.00 93 1014.5
20260903041403 78 25 2.0 5.0 0.00 0.17 0.00 93 1014.5
20260903040400 78 241 2.0 4.0 0.00 0.17 0.00 93 1014.5
20260903035900 78 344 2.0 4.0 0.00 0.17 0.17 93 1014.5
20260903034901 78 8 1.0 3.0 0.00 0.17 0.17 93 1014.6
20260903034401 78 30 1.0 3.0 0.00 0.17 0.17 93 1014.7
20260903033901 78 229 1.0 3.0 0.00 0.17 0.17 93 1014.8
20260903032902 77 38 1.0 3.0 0.00 0.17 0.17 93 1014.6
20260903031901 77 356 0.0 2.0 0.00 0.17 0.17 93 1014.6
20260903031401 77 0 0.0 2.0 0.00 0.17 0.17 93 1014.7
20260903030901 77 0 1.0 2.0 0.00 0.17 0.17 93 1014.7
20260903025901 77 352 1.0 2.0 0.00 0.17 0.17 93 1014.7
20260903024402 76 0 0.0 2.0 0.00 0.17 0.17 93 1015.0
20260903023901 76 340 0.0 2.0 0.00 0.17 0.17 93 1014.9
20260903022901 0 0 0.0 0.0 0.00 0.17 0.17
20260903022402 0 0 0.0 0.0 0.00 0.17 0.17
20260903021902 76 0 0.0 0.0 0.00 0.17 0.17 92 1014.8
20260903021405 76 0 0.0 0.0 0.00 0.17 0.17 92 1014.8
20260903020902 76 0 1.0 4.0 0.00 0.17 0.17 92 1014.8
20260903020353 76 0 1.0 4.0 0.00 0.17 0.17 92 1014.8
20260903015834 0 0 1.0 2.0 0.00 0.17 0.17
20260903015330 0 32 1.0 2.0 0.00 0.17 0.17
20260903014830 0 0 0.0 0.0 0.00 0.17 0.17
20260903014330 0 0 0.0 0.0 0.00 0.17 0.17
20260903013833 76 349 0.0 0.0 0.00 0.17 0.17 92 1014.7
20260903012801 76 349 0.0 3.0 0.00 0.17 0.17 92 1014.7
20260903012306 77 349 0.0 3.0 0.00 0.17 0.17 92 1014.7
20260903011802 78 0 0.0 3.0 0.00 0.17 0.17 89 1014.5
20260903011255 78 0 1.0 3.0 0.00 0.17 0.17 88 1014.4
20260903010249 78 47 1.0 3.0 0.00 0.17 0.17 88 1014.4
20260903005730 0 0 0.0 0.0 0.00 0.17 0.17
20260903005231 0 0.0 0.0 0.00 0.17 0.17
20260903004230 0 0.0 0.0 0.00 0.17 0.17
20260903003730 0 0.0 0.0 0.00 0.17 0.17
20260903003230 0 0.0 0.0 0.00 0.17 0.17
20260903002706 0 0.0 0.0 0.00 0.17 0.17
20260903001702 0 35 2.0 0.0 0.00 0.17 0.17
20260903001202 78 35 2.0 2.0 0.00 0.17 0.17 88 1014.5
20260903000701 78 35 2.0 3.0 0.00 0.17 0.17 88 1014.5
20260903000204 78 36 2.0 5.0 0.00 0.17 0.17 88 1014.5
20260902235702 78 36 3.0 6.0 0.00 0.17 0.17 88 1014.5
20260902235202 78 66 2.0 6.0 0.00 0.17 0.17 88 1014.5
20260902234202 78 49 2.0 5.0 0.00 0.17 0.17 88 1014.4
20260902233202 78 18 3.0 7.0 0.00 0.17 0.17 89 1014.5
20260902232702 79 22 2.0 6.0 0.00 0.17 0.17 89 1014.4
20260902232202 79 26 2.0 9.0 0.00 0.17 0.17 89 1014.3
20260902231702 79 67 4.0 9.0 0.00 0.17 0.17 89 1014.4
20260902230702 79 14 4.0 11.0 0.00 0.17 0.17 90 1014.3
20260902230201 79 65 2.0 4.0 0.00 0.17 0.17 90 1014.3
20260902225703 79 39 1.0 5.0 0.00 0.17 0.17 90 1014.2
20260902224702 78 83 2.0 5.0 0.00 0.17 0.17 90 1014.4
20260902224151 78 8 3.0 8.0 0.00 0.17 0.17 90 1014.4
20260902223650 78 24 4.0 8.0 0.00 0.17 0.17 90 1014.4
20260902223152 78 29 4.0 7.0 0.00 0.17 0.17 90 1014.5
20260902222651 78 60 3.0 6.0 0.00 0.17 0.17 90 1014.5
20260902222152 78 35 3.0 6.0 0.02 0.17 0.17 90 1014.5
20260902221652 78 2 3.0 6.0 0.06 0.17 0.17 90 1014.5
20260902220649 78 37 2.0 5.0 0.17 0.17 0.17 90 1014.5
20260902220148 77 0 2.0 5.0 0.17 0.17 0.17 90 1014.5
20260902215644 77 32 2.0 6.0 0.17 0.17 0.17 90 1014.5
20260902215144 77 82 2.0 7.0 0.17 0.17 0.17 90 1014.6
20260902214645 77 119 2.0 8.0 0.17 0.17 0.17 90 1014.6
20260902213646 77 131 2.0 7.0 0.17 0.17 0.17 90 1014.5
20260902212139 77 93 4.0 9.0 0.15 0.16 0.15 89 1014.6
20260902211139 80 59 6.0 13.0 0.05 0.06 0.05 87 1014.7